Location: Coed Ely
(51.5661°N, 3.4150°W)
Time: 02:16:56
(UTC+00:00)

Cosmos 372 Rocket - Pass Details

Date: 28 January 2021
Orbit: 738 x 768 km, 74.1° (Epoch: 28 February)

Event Time Altitude Azimuth Distance (km) Brightness Sun altitude
Rises 18:29:00 0° 182° (S) 3,203 7.4 -14.4°
Reaches altitude 10° 18:31:26 10° 176° (S) 2,287 6.5 -14.7°
Maximum altitude 18:36:20 44° 105° (ESE) 1,054 4.3 -15.5°
Enters shadow 18:39:58 18° 41° (NE) 1,843 5.5 -16.0°
